EST,Max TemperatureF,Mean TemperatureF,Min TemperatureF,Max Dew PointF,MeanDew PointF,Min DewpointF,Max Humidity, Mean Humidity, Min Humidity, Max Sea Level PressureIn, Mean Sea Level PressureIn, Min Sea Level PressureIn, Max VisibilityMiles, Mean VisibilityMiles, Min VisibilityMiles, Max Wind SpeedMPH, Mean Wind SpeedMPH, Max Gust SpeedMPH,PrecipitationIn, CloudCover, Events, WindDirDegrees
2012-2-1,42,35,27,40,35,25,100,90,79,29.99,29.79,29.68,10,6,1,17,8,28,0.06,8,Rain-Snow,249
2012-2-2,27,19,11,22,15,9,92,82,71,30.31,30.11,29.96,10,6,1,12,3,16,T,8,Snow,340
2012-2-3,27,15,2,27,18,2,92,78,63,30.43,30.27,30.16,10,5,1,12,5,15,0.08,7,Snow,233
2012-2-4,28,12,-5,25,14,-9,95,75,54,30.30,30.20,30.10,10,7,1,10,3,17,0.03,5,Snow,286
2012-2-5,25,7,-12,18,5,-16,91,76,60,30.23,30.13,29.99,10,10,4,12,4,15,T,5,Snow,229
2012-2-6,41,33,24,27,24,19,85,65,45,29.98,29.88,29.79,10,10,9,22,12,30,0.00,5,,240
2012-2-7,31,15,-2,25,13,-6,88,72,56,30.29,30.06,29.85,10,9,5,10,4,18,T,6,Snow,306
2012-2-8,29,12,-6,11,3,-10,88,65,42,30.30,30.17,30.05,10,10,10,15,5,21,0.00,0,,228
2012-2-9,35,26,17,19,16,10,92,66,40,30.05,30.00,29.93,10,10,9,18,8,23,0.00,4,,227
2012-2-10,31,22,12,19,16,9,92,73,53,30.04,29.95,29.79,10,9,2,17,7,23,T,6,Snow,229
2012-2-11,23,10,-3,20,13,-8,92,83,74,29.84,29.75,29.65,10,5,1,10,3,15,0.01,7,Snow,287
2012-2-12,8,1,-7,0,-7,-11,83,66,49,29.86,29.75,29.65,10,7,2,14,6,22,0.00,7,,267
2012-2-13,29,19,8,19,12,1,88,65,42,29.89,29.77,29.64,10,7,0,22,10,30,0.02,7,Fog-Snow,244
2012-2-14,34,26,18,24,17,13,91,69,47,30.01,29.95,29.82,10,10,9,18,7,23,T,7,,228
2012-2-15,33,30,27,30,27,24,92,89,85,30.24,30.10,29.96,10,5,1,12,3,17,0.01,8,Snow,235
2012-2-16,38,33,28,32,27,23,96,78,59,30.24,30.05,29.85,10,8,2,14,3,18,0.01,7,Snow,191
2012-2-17,34,31,27,32,25,19,96,76,56,29.93,29.85,29.78,10,8,2,16,10,28,0.02,8,Snow,242
2012-2-18,33,28,23,22,19,15,81,65,49,30.04,29.89,29.77,10,8,2,14,5,21,T,7,Snow,254
2012-2-19,27,18,8,16,13,5,92,74,55,30.10,30.05,29.98,10,10,5,10,3,16,T,6,Snow,270
2012-2-20,31,16,1,15,8,-2,92,69,46,30.32,30.22,30.01,10,10,10,12,2,20,0.00,3,,276
2012-2-21,39,20,0,27,12,-3,92,61,29,30.33,29.99,29.66,10,9,2,22,6,28,T,3,Snow,214
2012-2-22,38,35,31,32,30,25,100,80,59,29.65,29.48,29.36,10,3,0,23,9,28,0.33,8,Fog-Snow,225
2012-2-23,32,23,13,31,26,12,100,92,84,29.75,29.50,29.30,10,3,0,14,3,20,0.31,7,Fog-Snow,237
2012-2-24,34,23,12,31,24,10,100,90,80,29.75,29.42,29.11,10,3,0,24,5,31,0.46,7,Fog-Snow,161
2012-2-25,31,21,10,28,17,5,92,83,73,29.97,29.38,29.05,6,1,0,25,11,37,0.01,8,Fog-Snow,262
2012-2-26,20,8,-4,5,1,-5,95,70,45,30.43,30.29,29.91,10,9,2,15,5,21,T,2,Snow,259
2012-2-27,36,15,-6,30,20,-7,92,74,56,30.38,30.06,29.88,10,6,1,22,7,28,0.00,7,Snow,234
2012-2-28,28,22,16,27,20,12,88,81,73,30.32,30.13,30.01,6,3,1,10,8,30,0.02,8,Snow,277
2012-2-29,29,14,-1,20,20,20,84,84,84,29.77,29.77,29.77,9,9,9,7,7,,T,8,,60